Regional Weather Roundup
Issued by NWS

Home | Current Version | Previous Version | Text Only | Print | Product List | Glossary Off
Versions: 1 2 3 4 5 6 7 8 9 10 11 12 13 14 15 16 17 18 19 20 21 22 23 24 25 26 27 28 29 30 31 32 33 34 35 36 37 38 39 40 41 42 43 44 45 46 47 48 49 50

000
ASUS43 KFSD 291310
RWRSD

WEATHER ROUNDUP FOR SOUTH DAKOTA
NATIONAL WEATHER SERVICE SIOUX FALLS SD
800 AM CDT FRI MAY 29 2015

NOTE: "FAIR" INDICATES FEW OR NO CLOUDS BELOW 12,000 FEET WITH NO
SIGNIFICANT WEATHER AND/OR OBSTRUCTIONS TO VISIBILITY.


SDZ001>005-009-010-012>017-291400-
NORTHWEST AND NORTH CENTRAL SOUTH DAKOTA

CITY           SKY/WX    TMP DP  RH WIND       PRES   REMARKS
BUFFALO          N/A     46  43  89 N18       30.14R
FAITH            N/A     48  45  89 N23G32    30.12R
MOBRIDGE       CLOUDY    53  51  93 N23G33    30.05R
$$

SDZ012>016-024>037-041>051-057-063-072>074-291400-
SOUTHWEST AND SOUTH CENTRAL SOUTH DAKOTA

CITY           SKY/WX    TMP DP  RH WIND       PRES   REMARKS
RAPID CTY ARPT LGT RAIN  50  49  96 N21G31    30.12R
PIERRE         RAIN      55  54  96 N23       29.98R FOG
CUSTER         LGT RAIN  48  44  86 NE8       30.15R FOG
ELLSWORTH AFB  HVY RAIN  50  50 100 N25       30.13  FOG
PHILIP         LGT RAIN  52  50  93 N23G33    30.06R
PINE RIDGE     CLOUDY    56  52  86 N10       30.08R
SPEARFISH      LGT RAIN  45  45 100 NW12G17   30.22R
WINNER         LGT RAIN  60  55  83 NW14      29.95R
$$

SDZ004>011-016>023-039-040-291400-
NORTHEAST SOUTH DAKOTA

CITY           SKY/WX    TMP DP  RH WIND       PRES   REMARKS
ABERDEEN       LGT RAIN  55  53  93 N22G33    29.98R FOG
WATERTOWN      CLOUDY    60  57  89 N6        29.91R
BROOKINGS      CLOUDY    63  59  88 N3        29.89S
SISSETON         N/A     53  53 100 N22G33    29.96R
$$

SDZ017-020-022-023-036>040-048>070-291400-
SOUTHEAST SOUTH DAKOTA

CITY           SKY/WX    TMP DP  RH WIND       PRES   REMARKS
SIOUX FALLS    LGT RAIN  64  63  96 NW5       29.88R FOG
HURON            N/A    N/A N/A N/A MISG      29.89R
CHAMBERLAIN    CLOUDY    60  58  94 N9        29.92R
MITCHELL       CLOUDY    64  62  93 NW5       29.88R
YANKTON        CLOUDY    63  57  82 W6        29.88R
$$

ABBREVIATIONS USED IN REMARKS
   TC - TEMPERATURE IN CELSIUS
  WCI - WIND CHILL INDEX
   HX - HEAT INDEX
  VSB - VISIBILITY




USA.gov is the U.S. government's official web portal to all federal, state and local government web resources and services.